Time,TemperatureF,DewpointF,PressureIn,WindDirection,WindDirectionDegrees,WindSpeedMPH,WindSpeedGustMPH,Humidity,HourlyPrecipIn,Conditions,Clouds,dailyrainin,SolarRadiationWatts/m^2,SoftwareType,DateUTC
2013-11-01 00:00:00,47.2,25.3,30.07,East,95,1.0,1.0,42,0.00,,,0.00,0,WeatherCatV1.11B39,2013-11-01 07:00:00,
2013-11-01 00:05:00,46.9,25.0,30.08,East,95,0.0,2.0,42,0.00,,,0.00,0,WeatherCatV1.11B39,2013-11-01 07:05:00,
2013-11-01 00:10:00,46.5,24.7,30.08,East,95,0.0,0.0,42,0.00,,,0.00,0,WeatherCatV1.11B39,2013-11-01 07:10:00,
2013-11-01 00:15:00,46.3,25.0,30.08,East,96,0.0,0.0,43,0.00,,,0.00,0,WeatherCatV1.11B39,2013-11-01 07:15:00,
2013-11-01 00:20:00,45.7,25.0,30.08,East,96,0.0,0.0,44,0.00,,,0.00,0,WeatherCatV1.11B39,2013-11-01 07:20:00,
2013-11-01 00:25:00,45.2,24.6,30.08,East,96,0.0,0.0,44,0.00,,,0.00,0,WeatherCatV1.11B39,2013-11-01 07:25:00,
2013-11-01 00:30:00,44.6,24.6,30.08,East,96,0.0,0.0,45,0.00,,,0.00,0,WeatherCatV1.11B39,2013-11-01 07:30:00,
2013-11-01 00:35:00,43.7,24.8,30.08,East,96,0.0,1.0,47,0.00,,,0.00,0,WeatherCatV1.11B39,2013-11-01 07:35:00,
2013-11-01 00:40:00,43.9,25.5,30.08,East,96,0.0,1.0,48,0.00,,,0.00,0,WeatherCatV1.11B39,2013-11-01 07:40:00,
2013-11-01 00:45:00,43.9,25.0,30.08,East,96,0.0,1.0,47,0.00,,,0.00,0,WeatherCatV1.11B39,2013-11-01 07:45:00,
2013-11-01 00:50:00,43.7,24.8,30.08,East,96,0.0,0.0,47,0.00,,,0.00,0,WeatherCatV1.11B39,2013-11-01 07:50:00,
2013-11-01 00:55:00,43.6,25.2,30.08,East,96,0.0,0.0,48,0.00,,,0.00,0,WeatherCatV1.11B39,2013-11-01 07:55:00,
2013-11-01 01:00:00,43.4,25.0,30.08,East,96,0.0,0.0,48,0.00,,,0.00,0,WeatherCatV1.11B39,2013-11-01 08:00:00,
2013-11-01 01:05:00,43.3,24.9,30.08,East,96,0.0,0.0,48,0.00,,,0.00,0,WeatherCatV1.11B39,2013-11-01 08:05:00,
2013-11-01 01:10:00,43.2,24.9,30.08,East,96,0.0,0.0,48,0.00,,,0.00,0,WeatherCatV1.11B39,2013-11-01 08:10:00,
2013-11-01 01:15:00,42.9,25.1,30.08,East,96,0.0,1.0,49,0.00,,,0.00,0,WeatherCatV1.11B39,2013-11-01 08:15:00,
2013-11-01 01:20:00,43.0,25.2,30.08,East,96,0.0,0.0,49,0.00,,,0.00,0,WeatherCatV1.11B39,2013-11-01 08:20:00,
2013-11-01 01:25:00,42.8,25.0,30.09,East,96,0.0,0.0,49,0.00,,,0.00,0,WeatherCatV1.11B39,2013-11-01 08:25:00,
2013-11-01 01:30:00,42.8,25.0,30.09,East,96,0.0,0.0,49,0.00,,,0.00,0,WeatherCatV1.11B39,2013-11-01 08:30:00,
2013-11-01 01:35:00,42.6,24.3,30.09,East,96,0.0,0.0,48,0.00,,,0.00,0,WeatherCatV1.11B39,2013-11-01 08:35:00,
2013-11-01 01:40:00,42.0,24.7,30.09,East,96,0.0,0.0,50,0.00,,,0.00,0,WeatherCatV1.11B39,2013-11-01 08:40:00,
2013-11-01 01:45:00,42.0,24.7,30.09,East,96,1.0,1.0,50,0.00,,,0.00,0,WeatherCatV1.11B39,2013-11-01 08:45:00,
2013-11-01 01:50:00,42.0,25.2,30.09,East,96,0.0,1.0,51,0.00,,,0.00,0,WeatherCatV1.11B39,2013-11-01 08:50:00,
2013-11-01 01:55:00,42.2,25.4,30.09,East,96,0.0,0.0,51,0.00,,,0.00,0,WeatherCatV1.11B39,2013-11-01 08:55:00,
2013-11-01 02:00:00,41.9,25.6,30.09,East,96,0.0,0.0,52,0.00,,,0.00,0,WeatherCatV1.11B39,2013-11-01 09:00:00,
2013-11-01 02:05:00,41.3,25.5,30.09,East,95,1.0,2.0,53,0.00,,,0.00,0,WeatherCatV1.11B39,2013-11-01 09:05:00,
2013-11-01 02:10:00,41.6,25.3,30.09,East,96,0.0,0.0,52,0.00,,,0.00,0,WeatherCatV1.11B39,2013-11-01 09:10:00,
2013-11-01 02:15:00,41.6,25.3,30.09,East,95,0.0,0.0,52,0.00,,,0.00,0,WeatherCatV1.11B39,2013-11-01 09:15:00,
2013-11-01 02:20:00,41.2,24.9,30.09,East,95,0.0,0.0,52,0.00,,,0.00,0,WeatherCatV1.11B39,2013-11-01 09:20:00,
2013-11-01 02:25:00,41.3,25.0,30.09,East,96,0.0,0.0,52,0.00,,,0.00,0,WeatherCatV1.11B39,2013-11-01 09:25:00,
2013-11-01 02:30:00,40.8,24.6,30.09,East,96,0.0,0.0,52,0.00,,,0.00,0,WeatherCatV1.11B39,2013-11-01 09:30:00,
2013-11-01 02:35:00,40.5,25.2,30.09,East,95,0.0,0.0,54,0.00,,,0.00,0,WeatherCatV1.11B39,2013-11-01 09:35:00,
2013-11-01 02:40:00,40.6,24.8,30.09,East,95,0.0,0.0,53,0.00,,,0.00,0,WeatherCatV1.11B39,2013-11-01 09:40:00,
2013-11-01 02:45:00,40.9,24.6,30.09,East,96,0.0,0.0,52,0.00,,,0.00,0,WeatherCatV1.11B39,2013-11-01 09:45:00,
2013-11-01 02:50:00,41.0,24.3,30.10,East,95,0.0,1.0,51,0.00,,,0.00,0,WeatherCatV1.11B39,2013-11-01 09:50:00,
2013-11-01 02:55:00,40.9,24.2,30.10,East,96,1.0,2.0,51,0.00,,,0.00,0,WeatherCatV1.11B39,2013-11-01 09:55:00,
2013-11-01 03:00:00,40.8,24.6,30.10,East,95,2.0,3.0,52,0.00,,,0.00,0,WeatherCatV1.11B39,2013-11-01 10:00:00,
2013-11-01 03:05:00,40.4,24.2,30.10,East,95,1.0,2.0,52,0.00,,,0.00,0,WeatherCatV1.11B39,2013-11-01 10:05:00,
2013-11-01 03:10:00,40.7,24.5,30.10,East,95,0.0,0.0,52,0.00,,,0.00,0,WeatherCatV1.11B39,2013-11-01 10:10:00,
2013-11-01 03:15:00,40.7,24.0,30.10,East,95,0.0,0.0,51,0.00,,,0.00,0,WeatherCatV1.11B39,2013-11-01 10:15:00,
2013-11-01 03:20:00,40.1,24.4,30.10,East,95,0.0,0.0,53,0.00,,,0.00,0,WeatherCatV1.11B39,2013-11-01 10:20:00,
2013-11-01 03:25:00,40.1,24.4,30.10,East,95,0.0,0.0,53,0.00,,,0.00,0,WeatherCatV1.11B39,2013-11-01 10:25:00,
2013-11-01 03:30:00,40.2,24.0,30.10,East,95,0.0,1.0,52,0.00,,,0.00,0,WeatherCatV1.11B39,2013-11-01 10:30:00,
2013-11-01 03:35:00,40.0,23.8,30.10,East,95,0.0,1.0,52,0.00,,,0.00,0,WeatherCatV1.11B39,2013-11-01 10:35:00,
2013-11-01 03:40:00,39.8,23.6,30.10,East,95,0.0,0.0,52,0.00,,,0.00,0,WeatherCatV1.11B39,2013-11-01 10:40:00,
2013-11-01 03:45:00,39.7,24.0,30.10,East,96,0.0,0.0,53,0.00,,,0.00,0,WeatherCatV1.11B39,2013-11-01 10:45:00,
2013-11-01 03:50:00,39.6,23.9,30.10,East,96,0.0,0.0,53,0.00,,,0.00,0,WeatherCatV1.11B39,2013-11-01 10:50:00,
2013-11-01 03:55:00,39.2,23.5,30.10,East,96,0.0,0.0,53,0.00,,,0.00,0,WeatherCatV1.11B39,2013-11-01 10:55:00,
2013-11-01 04:00:00,38.8,23.6,30.10,East,95,2.0,2.0,54,0.00,,,0.00,0,WeatherCatV1.11B39,2013-11-01 11:00:00,
2013-11-01 04:05:00,39.3,24.1,30.10,East,96,0.0,0.0,54,0.00,,,0.00,0,WeatherCatV1.11B39,2013-11-01 11:05:00,
2013-11-01 04:10:00,39.5,23.8,30.10,East,96,0.0,0.0,53,0.00,,,0.00,0,WeatherCatV1.11B39,2013-11-01 11:10:00,
2013-11-01 04:15:00,39.6,23.9,30.10,East,96,0.0,0.0,53,0.00,,,0.00,0,WeatherCatV1.11B39,2013-11-01 11:15:00,
2013-11-01 04:20:00,39.3,23.6,30.10,East,96,0.0,0.0,53,0.00,,,0.00,0,WeatherCatV1.11B39,2013-11-01 11:20:00,
2013-11-01 04:25:00,39.2,24.0,30.10,East,96,0.0,0.0,54,0.00,,,0.00,0,WeatherCatV1.11B39,2013-11-01 11:25:00,
2013-11-01 04:30:00,38.9,24.6,30.10,East,96,0.0,0.0,56,0.00,,,0.00,0,WeatherCatV1.11B39,2013-11-01 11:30:00,
2013-11-01 04:35:00,38.9,24.1,30.10,East,96,0.0,0.0,55,0.00,,,0.00,0,WeatherCatV1.11B39,2013-11-01 11:35:00,
2013-11-01 04:40:00,38.9,23.7,30.11,East,96,0.0,0.0,54,0.00,,,0.00,0,WeatherCatV1.11B39,2013-11-01 11:40:00,
2013-11-01 04:45:00,38.5,23.8,30.11,East,96,0.0,0.0,55,0.00,,,0.00,0,WeatherCatV1.11B39,2013-11-01 11:45:00,
2013-11-01 04:50:00,38.6,23.8,30.11,East,96,0.0,1.0,55,0.00,,,0.00,0,WeatherCatV1.11B39,2013-11-01 11:50:00,
2013-11-01 04:55:00,38.1,23.8,30.11,East,96,0.0,0.0,56,0.00,,,0.00,0,WeatherCatV1.11B39,2013-11-01 11:55:00,
2013-11-01 05:00:00,37.9,24.0,30.12,East,96,0.0,1.0,57,0.00,,,0.00,0,WeatherCatV1.11B39,2013-11-01 12:00:00,
2013-11-01 05:05:00,37.9,23.6,30.12,East,95,1.0,3.0,56,0.00,,,0.00,0,WeatherCatV1.11B39,2013-11-01 12:05:00,
2013-11-01 05:10:00,38.1,23.8,30.12,East,95,1.0,1.0,56,0.00,,,0.00,0,WeatherCatV1.11B39,2013-11-01 12:10:00,
2013-11-01 05:15:00,38.6,23.8,30.12,East,95,0.0,0.0,55,0.00,,,0.00,0,WeatherCatV1.11B39,2013-11-01 12:15:00,
2013-11-01 05:20:00,38.2,23.9,30.12,East,95,0.0,2.0,56,0.00,,,0.00,0,WeatherCatV1.11B39,2013-11-01 12:20:00,
2013-11-01 05:25:00,38.5,23.8,30.12,East,95,0.0,0.0,55,0.00,,,0.00,0,WeatherCatV1.11B39,2013-11-01 12:25:00,
2013-11-01 05:30:00,38.6,23.8,30.12,East,95,0.0,0.0,55,0.00,,,0.00,0,WeatherCatV1.11B39,2013-11-01 12:30:00,
2013-11-01 05:35:00,38.0,23.7,30.12,East,96,0.0,0.0,56,0.00,,,0.00,0,WeatherCatV1.11B39,2013-11-01 12:35:00,
2013-11-01 05:40:00,38.0,23.7,30.12,East,96,0.0,0.0,56,0.00,,,0.00,0,WeatherCatV1.11B39,2013-11-01 12:40:00,
2013-11-01 05:45:00,38.2,23.5,30.12,East,96,0.0,0.0,55,0.00,,,0.00,0,WeatherCatV1.11B39,2013-11-01 12:45:00,
2013-11-01 05:50:00,37.7,23.4,30.12,East,96,0.0,2.0,56,0.00,,,0.00,0,WeatherCatV1.11B39,2013-11-01 12:50:00,
2013-11-01 05:55:00,38.1,23.4,30.12,East,95,1.0,2.0,55,0.00,,,0.00,0,WeatherCatV1.11B39,2013-11-01 12:55:00,
2013-11-01 06:00:00,38.4,23.2,30.13,East,95,1.0,2.0,54,0.00,,,0.00,0,WeatherCatV1.11B39,2013-11-01 13:00:00,
2013-11-01 06:05:00,38.2,23.5,30.13,East,95,1.0,2.0,55,0.00,,,0.00,0,WeatherCatV1.11B39,2013-11-01 13:05:00,
2013-11-01 06:10:00,38.1,23.8,30.13,East,95,0.0,1.0,56,0.00,,,0.00,0,WeatherCatV1.11B39,2013-11-01 13:10:00,
2013-11-01 06:15:00,38.2,23.5,30.13,East,96,0.0,0.0,55,0.00,,,0.00,0,WeatherCatV1.11B39,2013-11-01 13:15:00,
2013-11-01 06:20:00,38.1,23.8,30.13,East,95,0.0,0.0,56,0.00,,,0.00,0,WeatherCatV1.11B39,2013-11-01 13:20:00,
2013-11-01 06:25:00,37.7,23.4,30.13,East,95,0.0,0.0,56,0.00,,,0.00,0,WeatherCatV1.11B39,2013-11-01 13:25:00,
2013-11-01 06:30:00,37.3,23.9,30.13,East,95,0.0,0.0,58,0.00,,,0.00,0,WeatherCatV1.11B39,2013-11-01 13:30:00,
2013-11-01 06:35:00,36.8,23.4,30.14,East,96,0.0,0.0,58,0.00,,,0.00,0,WeatherCatV1.11B39,2013-11-01 13:35:00,
2013-11-01 06:40:00,36.9,23.5,30.14,East,96,0.0,0.0,58,0.00,,,0.00,5,WeatherCatV1.11B39,2013-11-01 13:40:00,
2013-11-01 06:45:00,36.8,23.4,30.14,East,95,0.0,0.0,58,0.00,,,0.00,7,WeatherCatV1.11B39,2013-11-01 13:45:00,
2013-11-01 06:50:00,36.9,23.5,30.14,East,96,0.0,0.0,58,0.00,,,0.00,9,WeatherCatV1.11B39,2013-11-01 13:50:00,
2013-11-01 06:55:00,36.7,23.3,30.14,East,95,1.0,1.0,58,0.00,,,0.00,11,WeatherCatV1.11B39,2013-11-01 13:55:00,
2013-11-01 07:00:00,36.8,23.8,30.14,East,96,0.0,2.0,59,0.00,,,0.00,14,WeatherCatV1.11B39,2013-11-01 14:00:00,
2013-11-01 07:05:00,37.4,24.0,30.14,East,96,1.0,2.0,58,0.00,,,0.00,18,WeatherCatV1.11B39,2013-11-01 14:05:00,
2013-11-01 07:10:00,37.5,24.1,30.15,East,96,0.0,0.0,58,0.00,,,0.00,25,WeatherCatV1.11B39,2013-11-01 14:10:00,
2013-11-01 07:15:00,38.2,24.3,30.15,East,96,1.0,2.0,57,0.00,,,0.00,42,WeatherCatV1.11B39,2013-11-01 14:15:00,
2013-11-01 07:20:00,39.3,24.9,30.15,East,96,1.0,1.0,56,0.00,,,0.00,70,WeatherCatV1.11B39,2013-11-01 14:20:00,
2013-11-01 07:25:00,41.1,25.3,30.15,East,96,0.0,1.0,53,0.00,,,0.00,86,WeatherCatV1.11B39,2013-11-01 14:25:00,
2013-11-01 07:30:00,43.6,25.7,30.15,East,96,0.0,0.0,49,0.00,,,0.00,102,WeatherCatV1.11B39,2013-11-01 14:30:00,
2013-11-01 07:35:00,45.5,25.9,30.16,East,96,0.0,1.0,46,0.00,,,0.00,125,WeatherCatV1.11B39,2013-11-01 14:35:00,
2013-11-01 07:40:00,46.7,26.0,30.16,East,96,0.0,0.0,44,0.00,,,0.00,142,WeatherCatV1.11B39,2013-11-01 14:40:00,
2013-11-01 07:45:00,48.2,26.2,30.16,East,96,0.0,0.0,42,0.00,,,0.00,162,WeatherCatV1.11B39,2013-11-01 14:45:00,
2013-11-01 07:50:00,48.4,26.9,30.16,East,96,0.0,0.0,43,0.00,,,0.00,181,WeatherCatV1.11B39,2013-11-01 14:50:00,
2013-11-01 07:55:00,49.2,27.7,30.16,East,96,0.0,0.0,43,0.00,,,0.00,195,WeatherCatV1.11B39,2013-11-01 14:55:00,
2013-11-01 08:00:00,50.3,26.3,30.16,East,96,0.0,0.0,39,0.00,,,0.00,211,WeatherCatV1.11B39,2013-11-01 15:00:00,
2013-11-01 08:05:00,51.4,26.7,30.16,East,96,0.0,0.0,38,0.00,,,0.00,229,WeatherCatV1.11B39,2013-11-01 15:05:00,
2013-11-01 08:10:00,52.2,26.7,30.16,East,96,0.0,0.0,37,0.00,,,0.00,244,WeatherCatV1.11B39,2013-11-01 15:10:00,
2013-11-01 08:15:00,52.9,26.7,30.17,East,96,0.0,0.0,36,0.00,,,0.00,258,WeatherCatV1.11B39,2013-11-01 15:15:00,
2013-11-01 08:20:00,53.8,26.8,30.17,East,96,0.0,1.0,35,0.00,,,0.00,276,WeatherCatV1.11B39,2013-11-01 15:20:00,
2013-11-01 08:25:00,54.4,26.6,30.16,East,96,0.0,1.0,34,0.00,,,0.00,292,WeatherCatV1.11B39,2013-11-01 15:25:00,
2013-11-01 08:30:00,54.9,26.3,30.17,East,96,0.0,1.0,33,0.00,,,0.00,306,WeatherCatV1.11B39,2013-11-01 15:30:00,
2013-11-01 08:35:00,55.4,26.8,30.17,East,96,1.0,2.0,33,0.00,,,0.00,325,WeatherCatV1.11B39,2013-11-01 15:35:00,
2013-11-01 08:40:00,55.6,27.0,30.17,East,96,2.0,2.0,33,0.00,,,0.00,339,WeatherCatV1.11B39,2013-11-01 15:40:00,
2013-11-01 08:45:00,55.9,27.9,30.17,East,98,2.0,2.0,34,0.00,,,0.00,353,WeatherCatV1.11B39,2013-11-01 15:45:00,
2013-11-01 08:50:00,56.2,27.5,30.17,ESE,103,2.0,3.0,33,0.00,,,0.00,371,WeatherCatV1.11B39,2013-11-01 15:50:00,
2013-11-01 08:55:00,56.6,27.8,30.17,SE,131,2.0,3.0,33,0.00,,,0.00,385,WeatherCatV1.11B39,2013-11-01 15:55:00,
2013-11-01 09:00:00,56.5,27.0,30.17,SE,135,0.0,4.0,32,0.00,,,0.00,397,WeatherCatV1.11B39,2013-11-01 16:00:00,
2013-11-01 09:05:00,57.1,27.5,30.17,SE,138,3.0,3.0,32,0.00,,,0.00,413,WeatherCatV1.11B39,2013-11-01 16:05:00,
2013-11-01 09:10:00,57.7,26.5,30.17,SE,138,2.0,2.0,30,0.00,,,0.00,429,WeatherCatV1.11B39,2013-11-01 16:10:00,
2013-11-01 09:15:00,58.2,26.9,30.17,SE,138,2.0,2.0,30,0.00,,,0.00,441,WeatherCatV1.11B39,2013-11-01 16:15:00,
2013-11-01 09:20:00,58.7,26.5,30.17,SE,139,1.0,3.0,29,0.00,,,0.00,457,WeatherCatV1.11B39,2013-11-01 16:20:00,
2013-11-01 09:25:00,59.5,27.2,30.17,South,174,1.0,4.0,29,0.00,,,0.00,471,WeatherCatV1.11B39,2013-11-01 16:25:00,
2013-11-01 09:30:00,59.5,26.4,30.17,South,174,0.0,3.0,28,0.00,,,0.00,482,WeatherCatV1.11B39,2013-11-01 16:30:00,
2013-11-01 09:35:00,60.2,26.1,30.17,SW,214,0.0,3.0,27,0.00,,,0.00,497,WeatherCatV1.11B39,2013-11-01 16:35:00,
2013-11-01 09:40:00,60.7,26.5,30.16,SW,214,1.0,3.0,27,0.00,,,0.00,510,WeatherCatV1.11B39,2013-11-01 16:40:00,
2013-11-01 09:45:00,61.6,26.4,30.16,SW,214,0.0,2.0,26,0.00,,,0.00,517,WeatherCatV1.11B39,2013-11-01 16:45:00,
2013-11-01 09:50:00,61.4,26.2,30.16,SW,214,0.0,2.0,26,0.00,,,0.00,531,WeatherCatV1.11B39,2013-11-01 16:50:00,
2013-11-01 09:55:00,62.1,26.8,30.16,SW,215,1.0,2.0,26,0.00,,,0.00,543,WeatherCatV1.11B39,2013-11-01 16:55:00,
2013-11-01 10:00:00,62.5,26.2,30.16,SW,215,2.0,3.0,25,0.00,,,0.00,554,WeatherCatV1.11B39,2013-11-01 17:00:00,
2013-11-01 10:05:00,62.8,26.5,30.16,SW,215,0.0,1.0,25,0.00,,,0.00,566,WeatherCatV1.11B39,2013-11-01 17:05:00,
2013-11-01 10:10:00,63.7,27.2,30.16,SW,215,1.0,2.0,25,0.00,,,0.00,575,WeatherCatV1.11B39,2013-11-01 17:10:00,
2013-11-01 10:15:00,63.7,27.2,30.16,SW,215,1.0,3.0,25,0.00,,,0.00,584,WeatherCatV1.11B39,2013-11-01 17:15:00,
2013-11-01 10:20:00,64.7,27.1,30.15,SW,215,1.0,2.0,24,0.00,,,0.00,596,WeatherCatV1.11B39,2013-11-01 17:20:00,
2013-11-01 10:25:00,65.3,26.6,30.15,SSW,206,3.0,4.0,23,0.00,,,0.00,605,WeatherCatV1.11B39,2013-11-01 17:25:00,
2013-11-01 10:30:00,65.3,26.6,30.15,SSW,201,0.0,2.0,23,0.00,,,0.00,613,WeatherCatV1.11B39,2013-11-01 17:30:00,
2013-11-01 10:35:00,66.5,27.6,30.15,SSW,211,3.0,4.0,23,0.00,,,0.00,624,WeatherCatV1.11B39,2013-11-01 17:35:00,
2013-11-01 10:40:00,66.3,25.2,30.15,SSW,211,1.0,1.0,21,0.00,,,0.00,629,WeatherCatV1.11B39,2013-11-01 17:40:00,
2013-11-01 10:45:00,66.9,26.8,30.15,SSW,213,0.0,2.0,22,0.00,,,0.00,638,WeatherCatV1.11B39,2013-11-01 17:45:00,
2013-11-01 10:50:00,68.2,25.6,30.14,SSW,197,2.0,4.0,20,0.00,,,0.00,647,WeatherCatV1.11B39,2013-11-01 17:50:00,
2013-11-01 10:55:00,68.6,25.9,30.14,WSW,243,1.0,3.0,20,0.00,,,0.00,654,WeatherCatV1.11B39,2013-11-01 17:55:00,
2013-11-01 11:00:00,68.7,27.2,30.14,SW,230,2.0,4.0,21,0.00,,,0.00,659,WeatherCatV1.11B39,2013-11-01 18:00:00,
2013-11-01 11:05:00,69.5,26.7,30.14,SW,232,3.0,4.0,20,0.00,,,0.00,666,WeatherCatV1.11B39,2013-11-01 18:05:00,
2013-11-01 11:10:00,69.2,25.2,30.13,NW,309,2.0,4.0,19,0.00,,,0.00,671,WeatherCatV1.11B39,2013-11-01 18:10:00,
2013-11-01 11:15:00,70.0,25.8,30.13,West,265,1.0,4.0,19,0.00,,,0.00,675,WeatherCatV1.11B39,2013-11-01 18:15:00,
2013-11-01 11:20:00,70.3,26.1,30.13,WSW,247,5.0,5.0,19,0.00,,,0.00,682,WeatherCatV1.11B39,2013-11-01 18:20:00,
2013-11-01 11:25:00,71.9,24.7,30.13,West,265,2.0,7.0,17,0.00,,,0.00,686,WeatherCatV1.11B39,2013-11-01 18:25:00,
2013-11-01 11:30:00,71.1,25.4,30.12,WSW,252,1.0,6.0,18,0.00,,,0.00,687,WeatherCatV1.11B39,2013-11-01 18:30:00,
2013-11-01 11:35:00,70.9,25.3,30.12,WSW,253,1.0,2.0,18,0.00,,,0.00,693,WeatherCatV1.11B39,2013-11-01 18:35:00,
2013-11-01 11:40:00,71.8,26.0,30.12,South,184,6.0,7.0,18,0.00,,,0.00,696,WeatherCatV1.11B39,2013-11-01 18:40:00,
2013-11-01 11:45:00,72.4,26.5,30.11,SW,217,4.0,6.0,18,0.00,,,0.00,696,WeatherCatV1.11B39,2013-11-01 18:45:00,
2013-11-01 11:50:00,72.8,25.4,30.11,WSW,253,6.0,7.0,17,0.00,,,0.00,700,WeatherCatV1.11B39,2013-11-01 18:50:00,
2013-11-01 11:55:00,72.6,25.3,30.11,WSW,247,3.0,6.0,17,0.00,,,0.00,701,WeatherCatV1.11B39,2013-11-01 18:55:00,
2013-11-01 12:00:00,73.7,26.2,30.11,WNW,294,4.0,6.0,17,0.00,,,0.00,703,WeatherCatV1.11B39,2013-11-01 19:00:00,
2013-11-01 12:05:00,72.8,24.0,30.10,NW,311,2.0,5.0,16,0.00,,,0.00,703,WeatherCatV1.11B39,2013-11-01 19:05:00,
2013-11-01 12:10:00,73.0,25.6,30.10,West,279,3.0,4.0,17,0.00,,,0.00,703,WeatherCatV1.11B39,2013-11-01 19:10:00,
2013-11-01 12:15:00,74.4,26.7,30.10,WSW,240,3.0,6.0,17,0.00,,,0.00,701,WeatherCatV1.11B39,2013-11-01 19:15:00,
2013-11-01 12:20:00,74.4,25.3,30.10,West,259,7.0,8.0,16,0.00,,,0.00,701,WeatherCatV1.11B39,2013-11-01 19:20:00,
2013-11-01 12:25:00,74.7,25.5,30.09,SSW,208,2.0,4.0,16,0.00,,,0.00,700,WeatherCatV1.11B39,2013-11-01 19:25:00,
2013-11-01 12:30:00,75.0,25.8,30.09,SSW,193,5.0,6.0,16,0.00,,,0.00,700,WeatherCatV1.11B39,2013-11-01 19:30:00,
2013-11-01 12:35:00,75.8,26.4,30.09,WNW,293,5.0,6.0,16,0.00,,,0.00,700,WeatherCatV1.11B39,2013-11-01 19:35:00,
2013-11-01 12:40:00,74.5,25.4,30.08,NNW,343,2.0,6.0,16,0.00,,,0.00,696,WeatherCatV1.11B39,2013-11-01 19:40:00,
2013-11-01 12:45:00,74.4,25.3,30.08,West,260,3.0,4.0,16,0.00,,,0.00,691,WeatherCatV1.11B39,2013-11-01 19:45:00,
2013-11-01 12:50:00,75.2,25.9,30.07,WSW,258,8.0,9.0,16,0.00,,,0.00,686,WeatherCatV1.11B39,2013-11-01 19:50:00,
2013-11-01 12:55:00,75.1,25.8,30.07,WSW,257,2.0,4.0,16,0.00,,,0.00,684,WeatherCatV1.11B39,2013-11-01 19:55:00,
2013-11-01 13:00:00,75.0,24.2,30.07,West,275,7.0,7.0,15,0.00,,,0.00,679,WeatherCatV1.11B39,2013-11-01 20:00:00,
2013-11-01 13:05:00,74.9,25.7,30.06,West,274,3.0,6.0,16,0.00,,,0.00,675,WeatherCatV1.11B39,2013-11-01 20:05:00,
2013-11-01 13:10:00,76.1,26.6,30.06,WSW,254,6.0,6.0,16,0.00,,,0.00,670,WeatherCatV1.11B39,2013-11-01 20:10:00,
2013-11-01 13:15:00,75.4,24.5,30.06,WNW,288,4.0,4.0,15,0.00,,,0.00,663,WeatherCatV1.11B39,2013-11-01 20:15:00,
2013-11-01 13:20:00,76.0,25.0,30.05,West,264,6.0,8.0,15,0.00,,,0.00,657,WeatherCatV1.11B39,2013-11-01 20:20:00,
2013-11-01 13:25:00,76.4,25.3,30.05,SSW,193,2.0,5.0,15,0.00,,,0.00,650,WeatherCatV1.11B39,2013-11-01 20:25:00,
2013-11-01 13:30:00,76.4,25.3,30.05,West,274,6.0,6.0,15,0.00,,,0.00,643,WeatherCatV1.11B39,2013-11-01 20:30:00,
2013-11-01 13:35:00,76.6,25.5,30.05,NW,304,5.0,5.0,15,0.00,,,0.00,638,WeatherCatV1.11B39,2013-11-01 20:35:00,
2013-11-01 13:40:00,76.7,25.6,30.04,WSW,251,5.0,5.0,15,0.00,,,0.00,629,WeatherCatV1.11B39,2013-11-01 20:40:00,
2013-11-01 13:45:00,77.8,26.4,30.04,WSW,242,4.0,5.0,15,0.00,,,0.00,621,WeatherCatV1.11B39,2013-11-01 20:45:00,
2013-11-01 13:50:00,77.9,26.5,30.04,South,178,3.0,6.0,15,0.00,,,0.00,613,WeatherCatV1.11B39,2013-11-01 20:50:00,
2013-11-01 13:55:00,78.4,25.3,30.04,SSW,211,3.0,5.0,14,0.00,,,0.00,603,WeatherCatV1.11B39,2013-11-01 20:55:00,
2013-11-01 14:00:00,78.3,25.2,30.04,South,186,2.0,7.0,14,0.00,,,0.00,594,WeatherCatV1.11B39,2013-11-01 21:00:00,
2013-11-01 14:05:00,78.1,26.7,30.04,South,170,1.0,2.0,15,0.00,,,0.00,584,WeatherCatV1.11B39,2013-11-01 21:05:00,
2013-11-01 14:10:00,77.9,24.9,30.03,WSW,247,2.0,5.0,14,0.00,,,0.00,577,WeatherCatV1.11B39,2013-11-01 21:10:00,
2013-11-01 14:15:00,77.6,24.6,30.03,WSW,258,5.0,6.0,14,0.00,,,0.00,564,WeatherCatV1.11B39,2013-11-01 21:15:00,
2013-11-01 14:20:00,77.2,26.0,30.03,South,186,0.0,7.0,15,0.00,,,0.00,552,WeatherCatV1.11B39,2013-11-01 21:20:00,
2013-11-01 14:25:00,78.3,26.8,30.03,West,266,5.0,5.0,15,0.00,,,0.00,543,WeatherCatV1.11B39,2013-11-01 21:25:00,
2013-11-01 14:30:00,78.2,25.1,30.03,NNW,336,1.0,3.0,14,0.00,,,0.00,531,WeatherCatV1.11B39,2013-11-01 21:30:00,
2013-11-01 14:35:00,78.1,25.0,30.03,West,280,2.0,4.0,14,0.00,,,0.00,519,WeatherCatV1.11B39,2013-11-01 21:35:00,
2013-11-01 14:40:00,78.2,25.1,30.03,WNW,297,0.0,8.0,14,0.00,,,0.00,508,WeatherCatV1.11B39,2013-11-01 21:40:00,
2013-11-01 14:45:00,77.7,24.7,30.03,WNW,294,0.0,1.0,14,0.00,,,0.00,492,WeatherCatV1.11B39,2013-11-01 21:45:00,
2013-11-01 14:50:00,78.2,25.1,30.02,NW,316,1.0,2.0,14,0.00,,,0.00,482,WeatherCatV1.11B39,2013-11-01 21:50:00,
2013-11-01 14:55:00,78.8,25.6,30.02,WNW,284,6.0,7.0,14,0.00,,,0.00,469,WeatherCatV1.11B39,2013-11-01 21:55:00,
2013-11-01 15:00:00,78.7,25.5,30.02,NW,317,2.0,2.0,14,0.00,,,0.00,455,WeatherCatV1.11B39,2013-11-01 22:00:00,
2013-11-01 15:05:00,78.4,25.3,30.02,WSW,255,4.0,8.0,14,0.00,,,0.00,441,WeatherCatV1.11B39,2013-11-01 22:05:00,
2013-11-01 15:10:00,78.5,25.3,30.01,WNW,301,7.0,8.0,14,0.00,,,0.00,427,WeatherCatV1.11B39,2013-11-01 22:10:00,
2013-11-01 15:15:00,78.3,25.2,30.01,WSW,242,3.0,6.0,14,0.00,,,0.00,413,WeatherCatV1.11B39,2013-11-01 22:15:00,
2013-11-01 15:20:00,78.7,25.5,30.01,West,275,6.0,8.0,14,0.00,,,0.00,399,WeatherCatV1.11B39,2013-11-01 22:20:00,
2013-11-01 15:25:00,78.3,25.2,30.01,WSW,242,3.0,6.0,14,0.00,,,0.00,385,WeatherCatV1.11B39,2013-11-01 22:25:00,
2013-11-01 15:30:00,79.1,25.8,30.01,SW,236,2.0,4.0,14,0.00,,,0.00,369,WeatherCatV1.11B39,2013-11-01 22:30:00,
2013-11-01 15:35:00,79.1,25.8,30.01,WSW,242,5.0,5.0,14,0.00,,,0.00,353,WeatherCatV1.11B39,2013-11-01 22:35:00,
2013-11-01 15:40:00,78.5,25.3,30.00,West,281,5.0,7.0,14,0.00,,,0.00,338,WeatherCatV1.11B39,2013-11-01 22:40:00,
2013-11-01 15:45:00,78.5,27.0,30.00,West,269,4.0,5.0,15,0.00,,,0.00,323,WeatherCatV1.11B39,2013-11-01 22:45:00,
2013-11-01 15:50:00,78.4,25.3,30.00,WSW,252,5.0,6.0,14,0.00,,,0.00,308,WeatherCatV1.11B39,2013-11-01 22:50:00,
2013-11-01 15:55:00,78.2,25.1,30.00,NW,309,2.0,6.0,14,0.00,,,0.00,294,WeatherCatV1.11B39,2013-11-01 22:55:00,
2013-11-01 16:00:00,77.9,26.5,30.00,WSW,252,4.0,5.0,15,0.00,,,0.00,274,WeatherCatV1.11B39,2013-11-01 23:00:00,
2013-11-01 16:05:00,78.0,26.6,30.00,West,263,3.0,7.0,15,0.00,,,0.00,258,WeatherCatV1.11B39,2013-11-01 23:05:00,
2013-11-01 16:10:00,77.9,26.5,30.00,West,273,2.0,6.0,15,0.00,,,0.00,241,WeatherCatV1.11B39,2013-11-01 23:10:00,
2013-11-01 16:15:00,77.9,26.5,30.00,WSW,255,3.0,5.0,15,0.00,,,0.00,218,WeatherCatV1.11B39,2013-11-01 23:15:00,
2013-11-01 16:20:00,77.6,27.8,30.00,WSW,238,4.0,5.0,16,0.00,,,0.00,190,WeatherCatV1.11B39,2013-11-01 23:20:00,
2013-11-01 16:25:00,77.1,27.4,30.00,WNW,294,4.0,6.0,16,0.00,,,0.00,128,WeatherCatV1.11B39,2013-11-01 23:25:00,
2013-11-01 16:30:00,76.8,27.2,30.00,WNW,282,4.0,10.0,16,0.00,,,0.00,102,WeatherCatV1.11B39,2013-11-01 23:30:00,
2013-11-01 16:35:00,76.8,27.2,30.00,NW,317,0.0,4.0,16,0.00,,,0.00,93,WeatherCatV1.11B39,2013-11-01 23:35:00,
2013-11-01 16:40:00,76.7,27.1,30.00,North,357,1.0,4.0,16,0.00,,,0.00,53,WeatherCatV1.11B39,2013-11-01 23:40:00,
2013-11-01 16:45:00,76.4,28.4,30.00,North,353,0.0,3.0,17,0.00,,,0.00,46,WeatherCatV1.11B39,2013-11-01 23:45:00,
2013-11-01 16:50:00,76.1,28.1,30.00,North,353,0.0,1.0,17,0.00,,,0.00,77,WeatherCatV1.11B39,2013-11-01 23:50:00,
2013-11-01 16:55:00,76.0,28.0,30.00,West,265,4.0,6.0,17,0.00,,,0.00,42,WeatherCatV1.11B39,2013-11-01 23:55:00,
2013-11-01 17:00:00,75.6,27.7,29.99,West,280,5.0,5.0,17,0.00,,,0.00,35,WeatherCatV1.11B39,2013-11-02 00:00:00,
2013-11-01 17:05:00,75.3,27.5,29.99,West,278,1.0,4.0,17,0.00,,,0.00,26,WeatherCatV1.11B39,2013-11-02 00:05:00,
2013-11-01 17:10:00,74.8,28.5,29.99,WNW,301,1.0,5.0,18,0.00,,,0.00,18,WeatherCatV1.11B39,2013-11-02 00:10:00,
2013-11-01 17:15:00,74.3,28.0,29.99,WNW,282,4.0,4.0,18,0.00,,,0.00,14,WeatherCatV1.11B39,2013-11-02 00:15:00,
2013-11-01 17:20:00,73.4,27.3,29.99,West,266,3.0,5.0,18,0.00,,,0.00,12,WeatherCatV1.11B39,2013-11-02 00:20:00,
2013-11-01 17:25:00,72.4,27.8,29.99,West,266,0.0,2.0,19,0.00,,,0.00,9,WeatherCatV1.11B39,2013-11-02 00:25:00,
2013-11-01 17:30:00,71.6,28.4,30.00,West,266,0.0,0.0,20,0.00,,,0.00,7,WeatherCatV1.11B39,2013-11-02 00:30:00,
2013-11-01 17:35:00,70.8,27.7,30.00,West,267,1.0,2.0,20,0.00,,,0.00,0,WeatherCatV1.11B39,2013-11-02 00:35:00,
2013-11-01 17:40:00,70.4,27.4,30.00,West,266,1.0,2.0,20,0.00,,,0.00,0,WeatherCatV1.11B39,2013-11-02 00:40:00,
2013-11-01 17:45:00,70.8,27.7,30.00,West,266,0.0,2.0,20,0.00,,,0.00,0,WeatherCatV1.11B39,2013-11-02 00:45:00,
2013-11-01 17:50:00,69.5,27.9,30.00,West,266,0.0,0.0,21,0.00,,,0.00,0,WeatherCatV1.11B39,2013-11-02 00:50:00,
2013-11-01 17:55:00,68.4,28.1,30.01,West,266,0.0,2.0,22,0.00,,,0.00,0,WeatherCatV1.11B39,2013-11-02 00:55:00,
2013-11-01 18:00:00,67.4,27.2,30.00,West,266,3.0,3.0,22,0.00,,,0.00,0,WeatherCatV1.11B39,2013-11-02 01:00:00,
2013-11-01 18:05:00,67.7,27.5,30.00,West,276,4.0,6.0,22,0.00,,,0.00,0,WeatherCatV1.11B39,2013-11-02 01:05:00,
2013-11-01 18:11:00,67.5,27.3,30.01,West,276,1.0,2.0,22,0.00,,,0.00,0,WeatherCatV1.11B39,2013-11-02 01:11:00,
2013-11-01 18:16:00,67.2,28.1,30.01,West,276,0.0,1.0,23,0.00,,,0.00,0,WeatherCatV1.11B39,2013-11-02 01:16:00,
2013-11-01 18:21:00,66.1,27.2,30.01,West,276,0.0,1.0,23,0.00,,,0.00,0,WeatherCatV1.11B39,2013-11-02 01:21:00,
2013-11-01 18:26:00,64.9,27.2,30.01,West,276,0.0,0.0,24,0.00,,,0.00,0,WeatherCatV1.11B39,2013-11-02 01:26:00,
2013-11-01 18:31:00,64.4,27.8,30.01,West,276,0.0,2.0,25,0.00,,,0.00,0,WeatherCatV1.11B39,2013-11-02 01:31:00,
2013-11-01 18:36:00,63.8,27.3,30.01,West,277,3.0,3.0,25,0.00,,,0.00,0,WeatherCatV1.11B39,2013-11-02 01:36:00,
2013-11-01 18:41:00,63.2,27.7,30.02,West,278,0.0,2.0,26,0.00,,,0.00,0,WeatherCatV1.11B39,2013-11-02 01:41:00,
2013-11-01 18:46:00,63.2,27.7,30.02,West,278,1.0,2.0,26,0.00,,,0.00,0,WeatherCatV1.11B39,2013-11-02 01:46:00,
2013-11-01 18:51:00,62.2,26.9,30.01,North,353,0.0,3.0,26,0.00,,,0.00,0,WeatherCatV1.11B39,2013-11-02 01:51:00,
2013-11-01 18:56:00,61.8,27.5,30.01,North,353,0.0,2.0,27,0.00,,,0.00,0,WeatherCatV1.11B39,2013-11-02 01:56:00,
2013-11-01 19:01:00,62.0,27.6,30.02,North,353,0.0,1.0,27,0.00,,,0.00,0,WeatherCatV1.11B39,2013-11-02 02:01:00,
2013-11-01 19:06:00,61.6,27.3,30.02,North,353,0.0,0.0,27,0.00,,,0.00,0,WeatherCatV1.11B39,2013-11-02 02:06:00,
2013-11-01 19:11:00,60.9,26.7,30.02,North,353,0.0,0.0,27,0.00,,,0.00,0,WeatherCatV1.11B39,2013-11-02 02:11:00,
2013-11-01 19:16:00,59.9,26.7,30.02,North,353,0.0,1.0,28,0.00,,,0.00,0,WeatherCatV1.11B39,2013-11-02 02:16:00,
2013-11-01 19:21:00,59.5,26.4,30.02,North,353,1.0,2.0,28,0.00,,,0.00,0,WeatherCatV1.11B39,2013-11-02 02:21:00,
2013-11-01 19:26:00,59.1,26.0,30.03,North,353,1.0,2.0,28,0.00,,,0.00,0,WeatherCatV1.11B39,2013-11-02 02:26:00,
2013-11-01 19:31:00,59.2,26.1,30.03,North,353,1.0,2.0,28,0.00,,,0.00,0,WeatherCatV1.11B39,2013-11-02 02:31:00,
2013-11-01 19:36:00,59.0,25.1,30.03,North,353,0.0,1.0,27,0.00,,,0.00,0,WeatherCatV1.11B39,2013-11-02 02:36:00,
2013-11-01 19:41:00,58.3,25.3,30.03,North,353,2.0,2.0,28,0.00,,,0.00,0,WeatherCatV1.11B39,2013-11-02 02:41:00,
2013-11-01 19:46:00,58.2,24.4,30.03,North,353,0.0,2.0,27,0.00,,,0.00,0,WeatherCatV1.11B39,2013-11-02 02:46:00,
2013-11-01 19:51:00,58.3,25.3,30.03,North,353,1.0,2.0,28,0.00,,,0.00,0,WeatherCatV1.11B39,2013-11-02 02:51:00,
2013-11-01 19:56:00,57.2,24.4,30.03,North,353,0.0,0.0,28,0.00,,,0.00,0,WeatherCatV1.11B39,2013-11-02 02:56:00,
2013-11-01 20:01:00,56.7,24.8,30.03,North,353,0.0,0.0,29,0.00,,,0.00,0,WeatherCatV1.11B39,2013-11-02 03:01:00,
2013-11-01 20:06:00,56.0,24.2,30.03,North,353,0.0,0.0,29,0.00,,,0.00,0,WeatherCatV1.11B39,2013-11-02 03:06:00,
2013-11-01 20:11:00,55.4,24.5,30.03,North,353,0.0,0.0,30,0.00,,,0.00,0,WeatherCatV1.11B39,2013-11-02 03:11:00,
2013-11-01 20:16:00,54.4,23.6,30.03,North,353,0.0,2.0,30,0.00,,,0.00,0,WeatherCatV1.11B39,2013-11-02 03:16:00,
2013-11-01 20:21:00,54.6,23.8,30.03,North,353,0.0,0.0,30,0.00,,,0.00,0,WeatherCatV1.11B39,2013-11-02 03:21:00,
2013-11-01 20:26:00,54.5,23.7,30.02,North,353,0.0,0.0,30,0.00,,,0.00,0,WeatherCatV1.11B39,2013-11-02 03:26:00,
2013-11-01 20:31:00,54.5,23.7,30.02,North,353,0.0,0.0,30,0.00,,,0.00,0,WeatherCatV1.11B39,2013-11-02 03:31:00,
2013-11-01 20:36:00,54.4,23.6,30.02,North,353,0.0,0.0,30,0.00,,,0.00,0,WeatherCatV1.11B39,2013-11-02 03:36:00,
2013-11-01 20:41:00,54.1,23.4,30.03,North,353,1.0,1.0,30,0.00,,,0.00,0,WeatherCatV1.11B39,2013-11-02 03:41:00,
2013-11-01 20:46:00,53.7,23.8,30.03,North,353,0.0,0.0,31,0.00,,,0.00,0,WeatherCatV1.11B39,2013-11-02 03:46:00,
2013-11-01 20:51:00,53.3,23.4,30.03,North,353,0.0,0.0,31,0.00,,,0.00,0,WeatherCatV1.11B39,2013-11-02 03:51:00,
2013-11-01 20:56:00,52.7,22.9,30.03,North,353,1.0,2.0,31,0.00,,,0.00,0,WeatherCatV1.11B39,2013-11-02 03:56:00,
2013-11-01 21:01:00,52.1,23.2,30.03,North,353,0.0,1.0,32,0.00,,,0.00,0,WeatherCatV1.11B39,2013-11-02 04:01:00,
2013-11-01 21:02:00,52.1,23.2,30.03,North,353,0.0,1.0,32,0.00,,,0.00,0,WeatherCatV1.11B39,2013-11-02 04:02:00,
2013-11-01 21:07:00,52.3,24.1,30.03,North,353,0.0,2.0,33,0.00,,,0.00,0,WeatherCatV1.11B39,2013-11-02 04:07:00,
2013-11-01 21:12:00,52.5,25.0,30.03,North,353,0.0,3.0,34,0.00,,,0.00,0,WeatherCatV1.11B39,2013-11-02 04:12:00,
2013-11-01 21:17:00,53.0,25.4,30.03,North,353,2.0,2.0,34,0.00,,,0.00,0,WeatherCatV1.11B39,2013-11-02 04:17:00,
2013-11-01 21:22:00,52.9,24.6,30.03,North,353,0.0,0.0,33,0.00,,,0.00,0,WeatherCatV1.11B39,2013-11-02 04:22:00,
2013-11-01 21:27:00,53.3,24.9,30.03,North,353,1.0,3.0,33,0.00,,,0.00,0,WeatherCatV1.11B39,2013-11-02 04:27:00,
2013-11-01 21:32:00,53.4,25.0,30.03,North,353,2.0,3.0,33,0.00,,,0.00,0,WeatherCatV1.11B39,2013-11-02 04:32:00,
2013-11-01 21:37:00,54.3,25.1,30.03,North,353,2.0,3.0,32,0.00,,,0.00,0,WeatherCatV1.11B39,2013-11-02 04:37:00,
2013-11-01 21:42:00,54.6,24.6,30.03,North,353,2.0,3.0,31,0.00,,,0.00,0,WeatherCatV1.11B39,2013-11-02 04:42:00,
2013-11-01 21:47:00,55.0,24.1,30.03,North,353,1.0,2.0,30,0.00,,,0.00,0,WeatherCatV1.11B39,2013-11-02 04:47:00,
2013-11-01 21:52:00,55.6,24.7,30.04,North,353,0.0,2.0,30,0.00,,,0.00,0,WeatherCatV1.11B39,2013-11-02 04:52:00,
2013-11-01 21:57:00,55.2,24.3,30.03,North,353,0.0,2.0,30,0.00,,,0.00,0,WeatherCatV1.11B39,2013-11-02 04:57:00,
2013-11-01 22:02:00,55.1,24.2,30.03,North,353,1.0,1.0,30,0.00,,,0.00,0,WeatherCatV1.11B39,2013-11-02 05:02:00,
2013-11-01 22:07:00,54.2,25.0,30.03,North,353,1.0,2.0,32,0.00,,,0.00,0,WeatherCatV1.11B39,2013-11-02 05:07:00,
2013-11-01 22:12:00,54.1,25.6,30.04,North,353,0.0,2.0,33,0.00,,,0.00,0,WeatherCatV1.11B39,2013-11-02 05:12:00,
2013-11-01 22:17:00,54.2,25.7,30.03,North,353,1.0,2.0,33,0.00,,,0.00,0,WeatherCatV1.11B39,2013-11-02 05:17:00,
2013-11-01 22:22:00,54.3,25.8,30.03,North,357,2.0,2.0,33,0.00,,,0.00,0,WeatherCatV1.11B39,2013-11-02 05:22:00,
2013-11-01 22:27:00,54.4,25.9,30.03,North,357,2.0,2.0,33,0.00,,,0.00,0,WeatherCatV1.11B39,2013-11-02 05:27:00,
2013-11-01 22:32:00,53.5,25.8,30.03,North,353,0.0,1.0,34,0.00,,,0.00,0,WeatherCatV1.11B39,2013-11-02 05:32:00,
2013-11-01 22:37:00,52.6,25.7,30.04,North,353,0.0,0.0,35,0.00,,,0.00,0,WeatherCatV1.11B39,2013-11-02 05:37:00,
2013-11-01 22:42:00,51.7,25.6,30.03,North,353,0.0,2.0,36,0.00,,,0.00,0,WeatherCatV1.11B39,2013-11-02 05:42:00,
2013-11-01 22:47:00,51.2,25.8,30.04,North,353,1.0,2.0,37,0.00,,,0.00,0,WeatherCatV1.11B39,2013-11-02 05:47:00,
2013-11-01 22:52:00,50.7,25.4,30.04,North,353,0.0,2.0,37,0.00,,,0.00,0,WeatherCatV1.11B39,2013-11-02 05:52:00,
2013-11-01 22:57:00,50.5,25.9,30.04,North,353,0.0,1.0,38,0.00,,,0.00,0,WeatherCatV1.11B39,2013-11-02 05:57:00,
2013-11-01 23:02:00,50.4,25.8,30.04,North,353,0.0,0.0,38,0.00,,,0.00,0,WeatherCatV1.11B39,2013-11-02 06:02:00,
2013-11-01 23:07:00,49.8,25.2,30.04,North,357,1.0,2.0,38,0.00,,,0.00,0,WeatherCatV1.11B39,2013-11-02 06:07:00,
2013-11-01 23:12:00,50.6,25.3,30.04,North,353,0.0,0.0,37,0.00,,,0.00,0,WeatherCatV1.11B39,2013-11-02 06:12:00,
2013-11-01 23:17:00,50.5,25.9,30.04,North,353,1.0,1.0,38,0.00,,,0.00,0,WeatherCatV1.11B39,2013-11-02 06:17:00,
2013-11-01 23:22:00,51.0,25.7,30.04,North,353,2.0,3.0,37,0.00,,,0.00,0,WeatherCatV1.11B39,2013-11-02 06:22:00,
2013-11-01 23:27:00,52.6,25.7,30.04,NNW,348,2.0,3.0,35,0.00,,,0.00,0,WeatherCatV1.11B39,2013-11-02 06:27:00,
2013-11-01 23:32:00,54.1,25.6,30.04,NNW,343,2.0,3.0,33,0.00,,,0.00,0,WeatherCatV1.11B39,2013-11-02 06:32:00,
2013-11-01 23:37:00,54.3,25.8,30.04,SSW,201,0.0,2.0,33,0.00,,,0.00,0,WeatherCatV1.11B39,2013-11-02 06:37:00,
2013-11-01 23:42:00,53.2,25.6,30.04,SSW,201,2.0,2.0,34,0.00,,,0.00,0,WeatherCatV1.11B39,2013-11-02 06:42:00,
2013-11-01 23:47:00,51.9,25.8,30.04,SSW,201,0.0,1.0,36,0.00,,,0.00,0,WeatherCatV1.11B39,2013-11-02 06:47:00,
2013-11-01 23:52:00,51.1,25.1,30.04,SSW,201,1.0,3.0,36,0.00,,,0.00,0,WeatherCatV1.11B39,2013-11-02 06:52:00,
2013-11-01 23:57:00,50.5,25.2,30.05,SSW,193,2.0,3.0,37,0.00,,,0.00,0,WeatherCatV1.11B39,2013-11-02 06:57:00,